www.pogodaiklimat.ru

Погода и климат >> Архив погоды >> Тунис >> Kasserine


ПОГОДА в Kasserine

  • Прогноз погоды в Kasserine
  • Монитор погоды в Kasserine
  • Климат города

АРХИВ ПОГОДЫ в Kasserine

Время (UTC), дата Ветер
(напр.,м/с)
 
Видим.   Явления Облачность Т
(С)
Тd
(С)
f
(%)
Тe
(С)
Тes
(С)
Комфортность P
(гПа)
Po
(гПа)
Тmin
(С)
Tmax
(С)
R
(мм)
R24
(мм)
S
(см)
03 14.05 0-10
{13}
н/о н/о +13.5 +9.7 78 1015.7 934.7
06 14.05 0-7
{13}
10 км 6/5 1000 м
[Cu Sc Ac und]
+14.4 +11.0 80 1016.1 935.3 +13.1
09 14.05 0-10
{12}
10 км 5/4 1000 м
[Cu Sc Ac und]
+17.4 +11.4 68 1016.3 936.3
12 14.05 0-5
{12}
10 км 6/4 1500 м
[Sc Ac und]
+21.4 +12.0 55 1014.0 935.2
15 14.05 0-7
{10}
10 км 6/3 1500 м
[Sc Ac und]
+23.6 +11.3 46 1011.7 933.7
18 14.05 0-7
{10}
10 км 6/3 1500 м
[Sc Ac und]
+20.3 +10.1 52 1013.0 934.0 +24.0
21 14.05 0-8
{12}
н/о н/о +14.0 +9.4 74 1016.6 935.6
00 15.05 0-4
{12}
н/о н/о +11.4 +8.4 82 1018.1 936.3
03 15.05 0-3
{5}
н/о н/о +10.0 +7.4 84 1016.5 934.4
06 15.05 0-5
{5}
10 км 4/1 1500 м
[Sc Ac und]
+11.9 +7.4 74 1017.6 935.9 +9.4
09 15.05 0-7
{10}
10 км 8/0
[Ac und]
+15.5 +8.5 63 1016.6 936.0
12 15.05 0-6
{11}
10 км 8/0
[Ac und]
+20.4 +10.5 53 1014.9 935.8
15 15.05 0-8
{8}
10 км 9/0
[Ac trans Ci sp]
+21.4 +8.7 44 1013.0 934.2
18 15.05 0-7
{9}
10 км 9/3 1500 м
[Sc Ac und Ci sp]
+20.0 +8.0 46 1013.7 934.5 +22.6
21 15.05 0-7
{11}
н/о н/о +15.4 +6.4 55 1016.9 936.2
00 16.05 0-5
{11}
н/о н/о +12.2 +8.3 77 1018.4 936.8
03 16.05 штиль 0
{6}
н/о н/о +10.6 +8.2 85 +10 +10 1018.0 936.0
06 16.05 штиль 0
{6}
10 км 9/4 1500 м
[Sc Ac trans Ci sp]
+11.8 +8.1 78 +11 +12 1017.8 936.1 +10.5
09 16.05 0-4
{5}
10 км 9/5 1500 м
[Sc Ac und]
+14.6 +6.7 59 1018.0 937.0
12 16.05 0-3
{5}
10 км 9/3 1500 м
[Sc Ac und Ci sp]
+19.5 +7.3 45 1014.7 935.3
15 16.05 0-6
{7}
10 км 10/5 1500 м
[Sc Ac und]
+17.7 +10.8 64 1014.0 934.3
18 16.05 0-7
{9}
10 км 5/0
[Ac und]
+17.2 +11.0 67 1013.6 933.8 +19.7
21 16.05 0-2
{8}
н/о н/о +13.9 +11.6 86 1016.2 935.3 0.2
00 17.05 0-2
{8}
н/о н/о +12.2 +9.9 86 1016.8 935.3
03 17.05 штиль 0
{2}
н/о н/о +11.3 +9.9 91 +11 +11 1016.0 934.4
06 17.05 0-3
{5}
10 км 9/0
[Ac und Ci sp]
+13.0 +10.9 87 1015.3 934.2 +11.2 0.2
09 17.05 0-6
{6}
10 км 8/0
[Ac und]
+19.3 +10.0 55 1013.2 933.9
12 17.05 0-9
{9}
10 км 8/0
[Ac und]
+22.0 +8.2 41 1011.4 932.9
15 17.05 0-8
{9}
10 км 9/4 1500 м
[Sc Ac und]
+21.8 +9.0 44 1010.9 932.4
18 17.05 0-9
{10}
10 км 8/3 1500 м
[Sc Ac und]
+18.8 +9.6 55 1011.8 932.5 +22.6
21 17.05 0-6
{9}
н/о н/о +13.6 +11.3 86 1015.2 934.3 2
00 18.05 0-2
{9}
н/о н/о +12.4 +11.5 94 1014.4 933.2
03 18.05 штиль 0
{2}
н/о н/о +11.5 +9.9 90 +11 +11 1013.2 931.8
06 18.05 0-3
{3}
10 км ясно +12.4 +11.0 91 1013.6 932.5 +10.3
09 18.05 0-6
{7}
10 км ясно +18.7 +12.5 67 1012.1 932.8
12 18.05 0-9
{9}
10 км 4/0
[Ac und]
+21.8 +13.9 61 1010.9 932.5
15 18.05 0-8
{10}
10 км 3/1 1000 м
[Cu med, cong Ac und]
+23.8 +12.8 50 1009.4 931.6
18 18.05 0-10
{10}
10 км 1/0
[Ac und]
+21.3 +13.5 61 1009.7 931.3 +23.8
21 18.05 0-7
{12}
н/о н/о +16.9 +14.7 87 1012.7 933.0 1
00 19.05 0-10
{12}
н/о н/о +15.0 +14.7 98 1012.8 932.6 7
03 19.05 0-3
{11}
н/о н/о +14.0 +14.0 100 1012.6 932.1
06 19.05 0-6
{11}
10 км 5/3 1000 м
[Cu Sc Ac und]
+14.6 +14.6 100 1013.2 932.8 +13.6
09 19.05 0-5
{6}
10 км 9/6 1000 м
[Cu Sc Ac und]
+16.1 +14.8 92 1013.4 933.4
12 19.05 0-7
{8}
10 км 9/4 1500 м
[Sc Ac und]
+21.0 +14.9 68 1010.9 932.4
15 19.05 0-8
{12}
10 км 9/4 1000 м
[Cu Sc Ac und]
+21.8 +15.2 66 1009.8 931.6
18 19.05 0-8
{12}
10 км 5/3 1500 м
[Sc Ac und]
+19.1 +15.2 78 1010.5 931.5 +22.3
21 19.05 0-8
{9}
н/о н/о +15.7 +15.1 96 1013.4 933.3 2
00 20.05 0-5
{9}
н/о н/о +14.9 +14.9 100 1013.0 932.7
03 20.05 0-5
{6}
н/о н/о +13.9 +13.9 100 1012.3 931.8
06 20.05 0-4
{8}
10 км 4/1 1000 м
[Cu med, cong Ac und]
+14.6 +14.1 97 1012.3 932.0 +13.7
09 20.05 0-7
{8}
10 км 4/0
[Ac und]
+18.4 +12.8 70 1011.6 932.3
12 20.05 0-6
{8}
10 км 1/0
[Ac und]
+22.0 +13.6 59 1009.3 931.1
15 20.05 0-7
{9}
10 км 8/4 1500 м
[Sc Ac und]
+23.2 +13.1 53 1007.6 929.8
18 20.05 0-8
{9}
10 км 8/4 1500 м
[Sc Ac und]
+22.1 +12.9 56 1008.1 930.0 +24.2
21 20.05 0-6
{10}
н/о н/о +17.9 +12.6 71 1011.5 932.1
00 21.05 0-7
{10}
н/о н/о +16.1 +13.4 84 1013.3 933.3 0.2

 

Местоположение метеостанции Kasserine (Тунис): широта 35.15 долгота 8.45 высота над уровнем моря 707 м.

В архиве по умолчанию представлена погода в Kasserine за последнюю неделю. Архивные данные за месяц целиком и за предыдущие месяцы, начиная с января 2011 года, Вы можете получить, выбрав интересующий диапазон дат из раскрывающегося списка и нажав кнопку "Ввод!".


*Определитесь, кто Вы:
робот инопланетянин человек

Внимание! Время в таблицах - всемирное. Для получения местного времени необходимо прибавить поправку, которая в Kasserine равна 1 ч.

Смотрите также архив погоды в соседних городах и на ближайших метеорологических станциях:

Погода в Tebessa (Алжир) (42 км)
Погода в Thala (Тунис) (49 км)
Погода в Gafsa (Тунис) (88 км)
Погода в Sidi Bouzid (Тунис) (95 км)
Погода в El Kef (Тунис) (111 км)
Погода в Khenchella (Алжир) (129 км)
Погода в Siliana (Тунис) (132 км)
Погода в Souk Ahras (Алжир) (133 км)
Погода в Tozeur (Тунис) (139 км)
Погода в Oum El Bouaghi (Алжир) (145 км)

Пояснения к столбцам:

Ветер - указаны скорость ветра в м/с - средняя за 10 мин, порывы в срок и между сроками (в фигурных скобках) и направление, откуда дует ветер: С - северный, СВ - северо-восточный, В - восточный, ЮВ - юго-восточный, Ю - южный, ЮЗ - юго-западный, З - западный, СЗ - северо-западный.
Видимость - горизонтальная дальность видимости в метрах или километрах. При видимости от 1 до 10 км при отсутствии осадков обычно наблюдается дымка, при ухудшении видимости до 1 км и менее - туман. В сухую погоду видимость может ухудшаться дымом, пылью или мглою.
Явления - указаны атмосферные явления, наблюдавшиеся в срок или в последний час перед сроком; фигурными скобками обозначены явления, наблюдавшиеся между сроками (за 1-3 часа до срока); квадратными скобками обозначены град или гололедные отложения с указанием их диаметра в мм.
Облачность - указаны через наклонную черту общая и нижняя облачность в баллах и высота нижней границы облаков в метрах; квадратными скобками обозначены формы облаков: Ci - перистые, Cs - перисто-слоистые, Cc - перисто-кучевые, Ac - высококучевые, As - высокослоистые, Sc - слоисто-кучевые, Ns - слоисто-дождевые, Cu - кучевые, Cb - кучево-дождевые. Подробнее классификацию облаков см. в Атласе облаков (PDF).
T - Температура воздуха - температура, измеренная на высоте 2 м над землей.
Td - Температура точки росы - температура, при понижении до которой содержащийся в воздухе водяной пар достигнет насыщения.
f - Относительная влажность воздуха - влажноcть воздуха, измеренная на высоте 2 м над землей.
Te - Эффективная температура - температура, которую ощущает одетый по сезону человек в тени. Характеристика душности погоды. При расчете учитывается влияние влажности воздуха и скорости ветра на теплоощущения человека.
Tes - Эффективная температура на солнце - температура, которую ощущает человек, с поправкой на солнечный нагрев. Характеристика знойности погоды. Зависит от высоты солнца над горизонтом, облачности и скорости ветра. Ночью, в пасмурную погоду, а также при ветре 12 м/с и более поправка равна нулю.
P - Атмосферное давление - приведенное к уровню моря атмосферное давление.
Po - Атмосферное давление - измеренное на уровне метеостанции атмосферное давление.
Tmin - Минимальная температура - минимум температуры воздуха на высоте 2 м над землей.
Tmax - Максимальная температура - максимум температуры воздуха на высоте 2 м над землей.
R - Количество осадков - Количество выпавших осадков за период времени, мм. При наведении курсора мыши на число - период времени, за который выпало указанное количество осадков.
R24 - Количество осадков - Количество выпавших осадков за 24 часа, мм.
S - Снежный покров - Высота снежного покрова, см. При наведении курсора мыши на число - состояние снежного покрова и степень покрытия местности в баллах.